TimeSAST,TemperatureF,Dew PointF,Humidity,Sea Level PressureIn,VisibilityMPH,Wind Direction,Wind SpeedMPH,Gust SpeedMPH,PrecipitationIn,Events,Conditions,WindDirDegrees,DateUTC
12:00 AM,68.0,64.4,88,29.71,6.2,West,3.5,-,N/A,,Mostly Cloudy,280,2013-02-18 22:00:00
1:00 AM,68.0,62.6,83,29.71,6.2,West,3.5,-,N/A,,Overcast,270,2013-02-18 23:00:00
2:00 AM,68,63,78,29.71,6,West,5.8,,,,,260,2013-02-19 00:00:00
2:00 AM,68.0,62.6,83,29.71,6.2,West,5.8,-,N/A,,Mostly Cloudy,260,2013-02-19 00:00:00
3:00 AM,68.0,62.6,83,29.71,6.2,West,8.1,-,N/A,,Mostly Cloudy,270,2013-02-19 01:00:00
4:00 AM,68.0,62.6,83,29.71,6.2,WNW,5.8,-,N/A,,Mostly Cloudy,300,2013-02-19 02:00:00
5:00 AM,67,62,80,29.74,12,NW,4.6,,,,Mostly Cloudy,310,2013-02-19 03:00:00
5:00 AM,68.0,62.6,83,29.71,6.2,WNW,4.6,-,N/A,,Mostly Cloudy,300,2013-02-19 03:00:00
6:00 AM,68.0,60.8,78,29.74,6.2,WNW,8.1,-,N/A,,Mostly Cloudy,300,2013-02-19 04:00:00
7:00 AM,68.0,60.8,78,29.77,6.2,West,6.9,-,N/A,,Mostly Cloudy,270,2013-02-19 05:00:00
8:00 AM,71,61,62,29.78,12,West,10.4,,,,Mostly Cloudy,270,2013-02-19 06:00:00
8:00 AM,71.6,60.8,69,29.77,6.2,West,10.4,-,N/A,,Mostly Cloudy,270,2013-02-19 06:00:00
9:00 AM,71.6,60.8,69,29.77,6.2,West,11.5,-,N/A,,Scattered Clouds,270,2013-02-19 07:00:00
10:00 AM,75.2,60.8,61,29.74,6.2,West,6.9,-,N/A,,Partly Cloudy,260,2013-02-19 08:00:00
11:00 AM,78,62,48,29.76,12,SSW,9.2,,,,Scattered Clouds,210,2013-02-19 09:00:00
11:00 AM,78.8,62.6,57,29.74,6.2,WSW,8.1,-,N/A,,Partly Cloudy,240,2013-02-19 09:00:00
12:00 PM,75.2,62.6,65,29.74,6.2,South,9.2,-,N/A,,Scattered Clouds,190,2013-02-19 10:00:00
1:00 PM,77.0,62.6,61,29.74,6.2,South,8.1,-,N/A,,Scattered Clouds,170,2013-02-19 11:00:00
2:00 PM,75.2,60.8,61,29.77,6.2,South,16.1,-,N/A,,Scattered Clouds,190,2013-02-19 12:00:00
3:00 PM,71.6,62.6,73,29.77,6.2,SSW,17.3,-,N/A,,Mostly Cloudy,210,2013-02-19 13:00:00
4:00 PM,69.8,60.8,73,29.77,6.2,SSW,21.9,-,N/A,,Mostly Cloudy,210,2013-02-19 14:00:00
5:00 PM,67,61,76,29.81,12,SSW,16.1,,,Rain,Light Rain,210,2013-02-19 15:00:00
5:00 PM,66.2,60.8,83,29.80,6.2,SSW,16.1,-,N/A,,Mostly Cloudy,210,2013-02-19 15:00:00
6:00 PM,68.0,59.0,73,29.80,6.2,SSW,18.4,-,N/A,,Mostly Cloudy,210,2013-02-19 16:00:00
7:00 PM,68.0,57.2,68,29.83,6.2,SW,17.3,-,N/A,,Mostly Cloudy,230,2013-02-19 17:00:00
8:00 PM,66,60,74,29.88,12,WSW,17.3,,,Rain,Light Rain,240,2013-02-19 18:00:00
8:00 PM,66.2,59.0,78,29.86,6.2,WSW,17.3,-,N/A,Rain,Light Rain,240,2013-02-19 18:00:00
9:00 PM,64.4,57.2,77,29.89,6.2,WSW,15.0,-,N/A,,Mostly Cloudy,250,2013-02-19 19:00:00
10:00 PM,64.4,55.4,73,29.92,6.2,West,11.5,-,N/A,,Mostly Cloudy,270,2013-02-19 20:00:00
11:00 PM,64.4,53.6,68,29.92,6.2,West,15.0,-,N/A,,Overcast,270,2013-02-19 21:00:00